THORAD AGENA D DEB, 4688

Orbit data source: Space-Track

THORAD AGENA D DEB, 4688 is space debris in SSO originally from a launch on Wed, 08 Apr 1970 UTC launched from the Air Force Western Test Range (AFWTR). Debris objects in space refer to the collection of defunct objects orbiting the Earth. Examples of debris include non-operational satellites, rocket bodies, and fragments generated from explosions, collisions, or faulty payload assembly.

Loading next visibility...
Identifier
4688, 1970-025BM
Orbit
SSO
Country
Flag of USUS
Related business
Manufacturer
Unknown
Mission
Spacecraft
Bus & Motor
Unknown
Mass
Unknown
Launch date (UTC)
1970-04-08 (56 years ago)
Launch vehicle
Unknown
Launch site
Air Force Western Test Range (AFWTR)
Object type
Payload
Rocket body
Debris
Shape & HBR
Unknown shape, 0.1 m
Radar Cross Section
Medium (>0.1 m² and <1 m²)

Expand to show TLE details & history
Last TLE update: 5 days ago

TLE from 5 days ago
0 THORAD AGENA D DEB
1 04688U 70025BM  26162.80917760  .00000095  00000-0  20950-3 0  9998
2 04688 100.0485 265.8115 0020326 283.1893 206.3751 13.53749294767002
Epoch: 2026-06-11T19:25Z
TLE epoch observation values (Epoch: 2026-06-11T19:25:12.944Z)
Latitude
49.58°
Longitude
-93.69382°
Altitude
1,079.794 km
Speed
7.31 km/s
True Right ascension
06h 31m 01s
True Declination
49° 25' 03"
Sunlit
Object was in daylight at epoch
Visualization orbit readout
Latitude
Unknown
Longitude
Unknown
Altitude
Unknown
Speed
Unknown
Apparent Right ascension
Unknown
Apparent Declination
Unknown
Sunlit
N/A
Visualization observer readout
Local Sidereal Time
21:16:27
Azimuth
Unknown
Elevation
Unknown
Doppler factor
Unknown
Orbital elements
Apogee altitude
1,070.921 km
Perigee altitude
1,040.7 km
Semi-major axis
7,433.948 km
Eccentricity
0.00203
Inclination
100.0485°
RAAN
265.8115°
Arg. of periapsis
283.1893°
True anomaly
206.27186°
Mean anomaly
206.3751°
Eccentric anomaly
206.32346°
Mean motion
3.38621 °/min
Orbital period
106.31 mins
BSTAR
0.0002095

Documentation

Showing up to 5 results
|